Cortez, CO

4:28 AM MDT on October 22, 2017 (GMT -0600)
Cortez Municipal

Weather History for KCEZ - May, 2014

Change the Weather History Date:

Monday, May 19, 2014

  Actual Average Record
Temperature  
Mean Temperature 61 °F 56 °F  
Max Temperature 83 °F 76 °F 88 °F (2006)
Min Temperature 38 °F 37 °F 26 °F (2017)
Degree Days  
Heating Degree Days 4 9  
Month to date heating degree days 238 212  
Since 1 July heating degree days 6125 6282  
Cooling Degree Days 0 0  
Month to date cooling degree days 0 0  
Year to date cooling degree days 0 0  
Growing Degree Days 10 (Base 50)    
Moisture  
Dew Point 13 °F    
Average Humidity 23    
Maximum Humidity 40    
Minimum Humidity 6    
Precipitation  
Precipitation 0.00 in 0.02 in 0.81 in (2001)
Month to date precipitation 0.14 0.67  
Year to date precipitation 2.01 4.89  
Sea Level Pressure  
Sea Level Pressure 29.75 in    
Wind  
Wind Speed 13 mph (SSW)    
Max Wind Speed 28 mph    
Max Gust Speed 37 mph    
Visibility 10 miles    
Events      
T = Trace of Precipitation, MM = Missing Value Source: NWS Daily Summary

Daily Weather History Graph

Daily Weather History Graph

Search for Another Location

Airport or City:

Trip Planner

Search our weather history database for the weather conditions in past years. The results will help you decide how hot, cold, wet, or windy it might be!

Date:

Astronomy

May. 19, 2014 Rise Set
Actual Time 6:02 AM MDT 8:19 PM MDT
Civil Twilight 5:33 AM MDT 8:49 PM MDT
Nautical Twilight 4:56 AM MDT 9:25 PM MDT
Astronomical Twilight 4:17 AM MDT 10:05 PM MDT
Moon 12:11 AM MDT (5/19) 11:01 AM MDT (5/19)
Length of Visible Light 15h 16m
Length of Day
14h 17m
Waning Gibbous, 70% of the Moon is Illuminated
May 19
Waning Gibbous
May 21
Last Quarter
May 28
New
Jun 5
First Quarter
Jun 12
Full

Hourly Weather History & Observations

Time (MDT) Temp. Windchill Dew Point Humidity Pressure Visibility Wind Dir Wind Speed Gust Speed Precip Events Conditions
12:53 AM 46.0 °F 44.8 °F 12.0 °F 25% 29.76 in 10.0 mi North 3.5 mph - N/A   Clear
1:53 AM 44.1 °F 40.1 °F 17.1 °F 34% 29.76 in 10.0 mi ENE 6.9 mph - N/A   Clear
2:53 AM 45.0 °F 40.6 °F 15.1 °F 30% 29.76 in 10.0 mi ENE 8.1 mph - N/A   Clear
3:53 AM 39.0 °F - 18.0 °F 43% 29.77 in 10.0 mi Calm Calm - N/A   Clear
4:53 AM 42.1 °F 36.1 °F 17.1 °F 37% 29.76 in 10.0 mi ENE 10.4 mph - N/A   Clear
5:53 AM 41.0 °F 38.0 °F 17.1 °F 38% 29.76 in 10.0 mi East 4.6 mph - N/A   Clear
8:53 AM 66.0 °F - 19.0 °F 17% 29.76 in 10.0 mi Variable 3.5 mph - N/A   Clear
9:53 AM 70.0 °F - 14.0 °F 12% 29.77 in 10.0 mi SW 13.8 mph - N/A   Clear
10:53 AM 73.0 °F - 14.0 °F 11% 29.76 in 10.0 mi SSW 17.3 mph - N/A   Clear
12:53 PM 79.0 °F - 10.9 °F 8% 29.77 in 10.0 mi South 19.6 mph 24.2 mph N/A   Clear
1:53 PM 81.0 °F - 10.9 °F 7% 29.75 in 10.0 mi South 18.4 mph 25.3 mph N/A   Clear
2:53 PM 82.0 °F - 14.0 °F 8% 29.73 in 10.0 mi SSW 13.8 mph 27.6 mph N/A   Clear
3:15 PM 81.0 °F - 12.0 °F 7% 29.92 in 10.0 mi SW 15.0 mph 21.9 mph N/A   Clear
3:53 PM 82.0 °F - 12.0 °F 7% 29.74 in 10.0 mi SSW 26.5 mph 33.4 mph N/A   Clear
4:53 PM 82.0 °F - 10.0 °F 7% 29.70 in 10.0 mi SW 16.1 mph 28.8 mph N/A   Clear
5:53 PM 80.1 °F - 12.0 °F 8% 29.70 in 10.0 mi WSW 18.4 mph 32.2 mph N/A   Clear
6:53 PM 78.1 °F - 10.9 °F 8% 29.70 in 10.0 mi SSW 21.9 mph 27.6 mph N/A   Clear
7:53 PM 72.0 °F - 14.0 °F 11% 29.70 in 10.0 mi SSW 16.1 mph - N/A   Clear
8:53 PM 66.9 °F - 10.9 °F 11% 29.70 in 10.0 mi SSW 13.8 mph - N/A   Clear
9:53 PM 62.1 °F - 10.9 °F 13% 29.74 in 10.0 mi SSW 12.7 mph - N/A   Clear
10:53 PM 61.0 °F - 12.0 °F 15% 29.76 in 10.0 mi South 12.7 mph - N/A   Clear
11:53 PM 64.0 °F - 9.0 °F 12% 29.76 in 10.0 mi SSW 17.3 mph - N/A   Clear